Brno, Czech Republic

9:44 PM CET on February 10, 2016 (GMT +0100)
Turany

Weather History for LKTB - December, 2013

Change the Weather History Date:

Saturday, December 7, 2013

  Actual Average Record
Temperature  
Mean Temperature 32 °F -  
Max Temperature 35 °F 34 °F - ()
Min Temperature 29 °F 26 °F - ()
Degree Days  
Heating Degree Days 33    
Moisture  
Dew Point 25 °F    
Average Humidity 74    
Maximum Humidity 100    
Minimum Humidity 48    
Precipitation  
Precipitation 0.00 in 0.03 in - ()
Sea Level Pressure  
Sea Level Pressure 30.04 in    
Wind  
Wind Speed 16 mph ()    
Max Wind Speed 25 mph    
Max Gust Speed 40 mph    
Visibility 5.4 miles    
Events Snow    
T = Trace of Precipitation, MM = Missing Value Source: Averaged Metar Reports

Daily Weather History Graph

Daily Weather History Graph

Search for Another Location

Airport or City:

Trip Planner

Search our weather history database for the weather conditions in past years. The results will help you decide how hot, cold, wet, or windy it might be!

Date:

Astronomy

Dec. 07, 2013 Rise Set
Actual Time 7:33 AM CET 3:55 PM CET
Civil Twilight 6:56 AM CET 4:32 PM CET
Nautical Twilight 6:16 AM CET 5:12 PM CET
Astronomical Twilight 5:37 AM CET 5:51 PM CET
Moon 10:50 AM CET (12/7) 9:36 PM CET (12/7)
Length of Visible Light 9h 36m
Length of Day
8h 21m
Waxing Crescent, 26% of the Moon is Illuminated
Dec 7
Waxing Crescent
Dec 9
First Quarter
Dec 17
Full
Dec 25
Last Quarter
Jan 1
New

Hourly Weather History & Observations

Time (CET) Temp. Windchill Dew Point Humidity Pressure Visibility Wind Dir Wind Speed Gust Speed Precip Events Conditions
12:00 AM 32.0 °F 21.6 °F 28.4 °F 87% 29.86 in 4.3 mi West 15.0 mph - N/A Snow Light Snow
12:18 AM 33.8 °F 24.8 °F 26.6 °F 75% 29.86 in 0.9 mi WNW 12.7 mph - N/A Snow Snow
12:23 AM 32.0 °F 21.6 °F 28.4 °F 87% 29.86 in 0.6 mi NW 15.0 mph - N/A Snow Heavy Snow
12:30 AM 30.2 °F 18.9 °F 30.2 °F 100% 29.86 in 0.6 mi NW 16.1 mph - N/A Snow Heavy Snow
12:41 AM 30.2 °F 18.1 °F 30.2 °F 100% 29.86 in 1.2 mi WNW 18.4 mph - N/A Snow Snow
12:49 AM 30.2 °F 18.9 °F 28.4 °F 93% 29.86 in 3.7 mi WNW 16.1 mph - N/A Snow Light Snow
1:00 AM 30 °F - 28 °F 86% 29.93 in 4 mi WNW 15.7 mph - - Snow Light Snow
1:00 AM 30.2 °F 18.9 °F 28.4 °F 93% 29.86 in 3.7 mi West 16.1 mph - N/A Snow Light Snow
1:06 AM 30.2 °F 19.3 °F 28.4 °F 93% 29.86 in 6.2 mi WNW 15.0 mph - N/A Snow Light Snow
1:30 AM 32.0 °F 21.2 °F 26.6 °F 80% 29.86 in 6.2 mi WNW 16.1 mph 34.5 mph N/A   Scattered Clouds
2:00 AM 32.0 °F 19.8 °F 23.0 °F 69% 29.89 in 6.2 mi NW 20.7 mph 32.2 mph N/A   Scattered Clouds
2:25 AM 32.0 °F 19.5 °F 23.0 °F 69% 29.92 in 5.0 mi WNW 21.9 mph 35.7 mph N/A Snow Light Snow
2:30 AM 32.0 °F 19.2 °F 24.8 °F 75% 29.89 in 3.7 mi WNW 23.0 mph 35.7 mph N/A Snow Light Snow
3:00 AM 32.0 °F 19.5 °F 23.0 °F 69% 29.92 in 6.2 mi WNW 21.9 mph - N/A Snow Light Snow
3:04 AM 32.0 °F 19.8 °F 23.0 °F 69% 29.92 in 6.2 mi WNW 20.7 mph 34.5 mph N/A Snow Light Snow
3:30 AM 32.0 °F 19.5 °F 21.2 °F 64% 29.92 in 6.2 mi WNW 21.9 mph - N/A   Mostly Cloudy
3:44 AM 32.0 °F 18.9 °F 21.2 °F 64% 29.92 in 6.2 mi WNW 24.2 mph 35.7 mph N/A   Mostly Cloudy
4:00 AM 32.0 °F 19.5 °F 21.2 °F 64% 29.95 in 6.2 mi WNW 21.9 mph 33.4 mph N/A   Mostly Cloudy
4:30 AM 32.0 °F 19.2 °F 21.2 °F 64% 29.95 in 6.2 mi WNW 23.0 mph 34.5 mph N/A   Scattered Clouds
5:00 AM 32.0 °F 18.6 °F 21.2 °F 64% 29.95 in 6.2 mi West 25.3 mph 40.3 mph N/A Snow Light Snow
5:30 AM 30.2 °F 16.5 °F 24.8 °F 80% 29.98 in 6.2 mi WNW 24.2 mph 36.8 mph N/A Snow Light Snow
6:00 AM 32.0 °F 19.2 °F 21.2 °F 64% 29.98 in 6.2 mi WNW 23.0 mph 34.5 mph N/A   Mostly Cloudy
6:30 AM 32.0 °F 18.9 °F 21.2 °F 64% 29.98 in 6.2 mi WNW 24.2 mph - N/A   Scattered Clouds
6:38 AM 32.0 °F 18.9 °F 21.2 °F 64% 29.98 in 6.2 mi WNW 24.2 mph 36.8 mph N/A   Scattered Clouds
6:46 AM 32.0 °F 19.5 °F 21.2 °F 64% 30.01 in 6.2 mi WNW 21.9 mph - N/A   Scattered Clouds
7:00 AM 31 °F - 20 °F 53% 30.06 in 25 mi West 17.9 mph - -   Partly Cloudy
7:00 AM 32.0 °F 19.8 °F 21.2 °F 64% 30.01 in 6.2 mi WNW 20.7 mph - N/A   Scattered Clouds
7:30 AM 32.0 °F 20.1 °F 23.0 °F 69% 30.01 in 6.2 mi West 19.6 mph - N/A   Scattered Clouds
7:52 AM 32.0 °F 20.1 °F 23.0 °F 69% 30.01 in 6.2 mi West 19.6 mph 31.1 mph N/A   Scattered Clouds
8:01 AM 32.0 °F 19.2 °F 24.8 °F 75% 30.04 in 6.2 mi West 23.0 mph - N/A   Scattered Clouds
8:05 AM 32.0 °F 19.2 °F 24.8 °F 75% 30.04 in 6.2 mi West 23.0 mph - N/A Snow Light Snow
8:30 AM 32.0 °F 19.8 °F 24.8 °F 75% 30.04 in 3.1 mi West 20.7 mph - N/A Snow Snow
8:33 AM 32.0 °F 19.8 °F 24.8 °F 75% 30.04 in 0.9 mi West 20.7 mph - N/A Snow Heavy Snow
8:45 AM 30.2 °F 17.1 °F 26.6 °F 86% 30.04 in 1.6 mi WNW 21.9 mph - N/A Snow Snow
9:00 AM 30.2 °F 18.5 °F 26.6 °F 86% 30.06 in 6.2 mi West 17.3 mph - N/A Snow Light Snow
9:11 AM 32.0 °F 20.8 °F 24.8 °F 75% 30.06 in 6.2 mi West 17.3 mph - N/A Snow Light Snow
9:14 AM 32.0 °F 20.5 °F 24.8 °F 75% 30.06 in 6.2 mi West 18.4 mph 29.9 mph N/A Snow Light Snow
9:30 AM 32.0 °F 20.1 °F 24.8 °F 75% 30.06 in 6.2 mi WNW 19.6 mph - N/A   Scattered Clouds
9:45 AM 33.8 °F 21.6 °F 24.8 °F 70% 30.06 in 6.2 mi West 23.0 mph - N/A Snow Light Snow
10:00 AM 33.8 °F 21.9 °F 24.8 °F 70% 30.06 in 6.2 mi WNW 21.9 mph - N/A Snow Light Snow
10:17 AM 33.8 °F 21.6 °F 24.8 °F 70% 30.06 in 6.2 mi WNW 23.0 mph 40.3 mph N/A Snow Light Snow
10:30 AM 33.8 °F 21.6 °F 24.8 °F 70% 30.09 in 6.2 mi WNW 23.0 mph - N/A Snow Light Snow
10:40 AM 33.8 °F 22.5 °F 24.8 °F 70% 30.09 in 1.9 mi WNW 19.6 mph - N/A Snow Snow
10:43 AM 33.8 °F 22.8 °F 24.8 °F 70% 30.09 in 0.9 mi WNW 18.4 mph - N/A Snow Heavy Snow
10:51 AM 32.0 °F 19.8 °F 26.6 °F 80% 30.09 in 3.1 mi West 20.7 mph - N/A Snow Light Snow
11:00 AM 32.0 °F 19.8 °F 26.6 °F 80% 30.09 in 6.2 mi West 20.7 mph - N/A   Mostly Cloudy
11:18 AM 33.8 °F 23.9 °F 24.8 °F 70% 30.09 in 6.2 mi West 15.0 mph 26.5 mph N/A Snow Light Snow
11:30 AM 33.8 °F 22.2 °F 24.8 °F 70% 30.09 in 6.2 mi WNW 20.7 mph - N/A Snow Light Snow
11:46 AM 33.8 °F 22.2 °F 24.8 °F 70% 30.09 in 3.1 mi WNW 20.7 mph - N/A Snow Light Snow
11:51 AM 33.8 °F 22.2 °F 24.8 °F 70% 30.09 in 5.0 mi WNW 20.7 mph - N/A Snow Snow
12:00 PM 33.8 °F 22.2 °F 26.6 °F 75% 30.09 in 2.8 mi WNW 20.7 mph 32.2 mph N/A Snow Snow
12:24 PM 33.8 °F 23.5 °F 26.6 °F 75% 30.09 in 6.2 mi WNW 16.1 mph - N/A Snow Light Snow
12:30 PM 33.8 °F 23.9 °F 26.6 °F 75% 30.09 in 6.2 mi WNW 15.0 mph - N/A Snow Light Snow
12:42 PM 35.6 °F 26.2 °F 24.8 °F 65% 30.09 in 6.2 mi WNW 15.0 mph 26.5 mph N/A Snow Light Snow
1:00 PM 35 °F - 22 °F 48% 30.16 in 25 mi WNW 20.1 mph - - Snow Light Snow
1:00 PM 35.6 °F 24.8 °F 23.0 °F 60% 30.09 in 6.2 mi WNW 19.6 mph - N/A   Mostly Cloudy
1:30 PM 35.6 °F 25.2 °F 24.8 °F 65% 30.09 in 6.2 mi WNW 18.4 mph - N/A   Mostly Cloudy
1:33 PM 35.6 °F 25.9 °F 24.8 °F 65% 30.09 in 6.2 mi West 16.1 mph - N/A Snow Light Snow
2:00 PM 35.6 °F 24.8 °F 24.8 °F 65% 30.09 in 6.2 mi WNW 19.6 mph - N/A   Scattered Clouds
2:30 PM 35.6 °F 25.9 °F 24.8 °F 65% 30.12 in 6.2 mi West 16.1 mph - N/A   Mostly Cloudy
2:37 PM 35.6 °F 26.6 °F 24.8 °F 65% 30.12 in 6.2 mi WNW 13.8 mph - N/A Snow Light Snow Showers
2:42 PM 35.6 °F 27.1 °F 24.8 °F 65% 30.12 in 3.7 mi WNW 12.7 mph - N/A Snow Light Snow Showers
3:00 PM 33.8 °F 23.2 °F 24.8 °F 70% 30.12 in 6.2 mi WNW 17.3 mph - N/A Snow Light Snow Showers
3:30 PM 33.8 °F 24.8 °F 26.6 °F 75% 30.12 in 6.2 mi WNW 12.7 mph - N/A Snow Light Snow Showers
4:00 PM 33.8 °F 24.8 °F 26.6 °F 75% 30.12 in 6.2 mi West 12.7 mph - N/A   Scattered Clouds
4:30 PM 32.0 °F 27.5 °F 24.8 °F 75% 30.15 in 6.2 mi WNW 4.6 mph - N/A   Scattered Clouds
5:00 PM 33.8 °F 27.0 °F 23.0 °F 65% 30.15 in 6.2 mi West 8.1 mph - N/A   Scattered Clouds
5:30 PM 35.6 °F 28.0 °F 23.0 °F 60% 30.15 in 6.2 mi West 10.4 mph - N/A Snow Light Snow Showers
6:00 PM 33.8 °F 24.3 °F 26.6 °F 75% 30.15 in 6.2 mi West 13.8 mph - N/A Snow Light Snow Showers
6:30 PM 33.8 °F 29.6 °F 28.4 °F 81% 30.15 in 6.2 mi SW 4.6 mph - N/A Snow Light Snow Showers
7:00 PM 32 °F - 28 °F 77% 30.21 in 19 mi South 4.5 mph - - Snow Light Snow
7:00 PM 33.8 °F 30.8 °F 28.4 °F 81% 30.15 in 6.2 mi South 3.5 mph - N/A Snow Light Snow
7:30 PM 33.8 °F 27.7 °F 26.6 °F 75% 30.15 in 6.2 mi SW 6.9 mph - N/A   Mostly Cloudy
7:36 PM 35.6 °F 29.9 °F 26.6 °F 70% 30.15 in 6.2 mi WSW 6.9 mph - N/A Snow Light Snow
8:00 PM 35.6 °F 28.0 °F 28.4 °F 75% 30.15 in 5.0 mi West 10.4 mph - N/A Snow Light Snow
8:12 PM 33.8 °F 26.4 °F 28.4 °F 81% 30.15 in 3.1 mi West 9.2 mph - N/A Snow Light Snow
8:30 PM 33.8 °F 27.0 °F 30.2 °F 87% 30.15 in 5.0 mi WSW 8.1 mph - N/A Snow Light Snow
9:00 PM 33.8 °F 29.6 °F 30.2 °F 87% 30.15 in 6.2 mi SW 4.6 mph - N/A Snow Light Snow
9:30 PM 33.8 °F 29.6 °F 28.4 °F 81% 30.15 in 6.2 mi SSW 4.6 mph - N/A   Mostly Cloudy
10:00 PM 33.8 °F 27.0 °F 28.4 °F 81% 30.15 in 6.2 mi WNW 8.1 mph - N/A   Mostly Cloudy
10:30 PM 33.8 °F 27.7 °F 26.6 °F 75% 30.15 in 6.2 mi WSW 6.9 mph - N/A   Mostly Cloudy
11:00 PM 33.8 °F 27.7 °F 26.6 °F 75% 30.15 in 6.2 mi West 6.9 mph - N/A   Partly Cloudy
11:30 PM 32.0 °F 25.6 °F 26.6 °F 80% 30.15 in - SW 6.9 mph - N/A   Clear